FW4741 Weather Reports


Display with metric or nautical units.
time (UTC)temp
F
wind
direction
speed
MPH
gust
MPH
rain 1hr
in
rain 24hr
in
rain mn
in
humidity
%
barometer
mb
20260508153104 74 77 2.0 6.0 0.00 0.00 0.00 42 1021.5
20260508152604 74 77 2.0 6.0 0.00 0.00 0.00 42 1021.6
20260508152103 73 77 2.0 6.0 0.00 0.00 0.00 43 1021.6
20260508151604 73 77 2.0 6.0 0.00 0.00 0.00 43 1021.6
20260508151104 72 77 2.0 6.0 0.00 0.00 0.00 44 1021.6
20260508150604 72 77 2.0 6.0 0.00 0.00 0.00 44 1021.6
20260508145603 70 77 2.0 6.0 0.00 0.00 0.00 46 1021.7
20260508145104 69 77 2.0 6.0 0.00 0.00 0.00 46 1021.7
20260508144604 69 77 2.0 6.0 0.00 0.00 0.00 47 1021.7
20260508143603 68 77 2.0 6.0 0.00 0.00 0.00 48 1021.8
20260508143103 67 77 2.0 6.0 0.00 0.00 0.00 48 1021.8
20260508142603 67 77 2.0 6.0 0.00 0.00 0.00 49 1021.8
20260508142103 67 77 2.0 6.0 0.00 0.00 0.00 49 1021.8
20260508141604 66 77 2.0 6.0 0.00 0.00 0.00 50 1021.8
20260508141103 66 77 2.0 6.0 0.00 0.00 0.00 51 1021.8
20260508140603 65 77 2.0 6.0 0.00 0.00 0.00 52 1021.9
20260508135603 64 77 2.0 6.0 0.00 0.00 0.00 54 1021.8
20260508134605 63 77 2.0 6.0 0.00 0.00 0.00 56 1021.9
20260508134103 62 77 2.0 6.0 0.00 0.00 0.00 57 1021.8
20260508133103 62 77 2.0 6.0 0.00 0.00 0.00 58 1021.8
20260508132604 61 77 2.0 6.0 0.00 0.00 0.00 59 1021.8
20260508132103 61 77 2.0 6.0 0.00 0.00 0.00 59 1021.8
20260508131603 60 77 2.0 6.0 0.00 0.00 0.00 59 1021.8
20260508130603 59 77 2.0 6.0 0.00 0.00 0.00 61 1021.8
20260508125603 59 77 2.0 6.0 0.00 0.00 0.00 62 1021.8
20260508125104 59 77 2.0 6.0 0.00 0.00 0.00 61 1021.8
20260508124604 59 77 2.0 6.0 0.00 0.00 0.00 60 1021.8
20260508124113 59 77 2.0 6.0 0.00 0.00 0.00 61 1021.8
20260508123604 59 77 2.0 6.0 0.00 0.00 0.00 60 1021.8
20260508123103 59 77 2.0 6.0 0.00 0.00 0.00 60 1021.8
20260508122604 58 77 2.0 6.0 0.00 0.00 0.00 62 1021.8
20260508122104 59 77 2.0 6.0 0.00 0.00 0.00 62 1021.8
20260508121604 59 77 2.0 6.0 0.00 0.00 0.00 62 1021.8
20260508121103 59 77 2.0 6.0 0.00 0.00 0.00 61 1021.8
20260508120603 59 77 2.0 6.0 0.00 0.00 0.00 60 1021.8
20260508120103 59 77 2.0 6.0 0.00 0.00 0.00 60 1021.7
20260508115603 58 77 2.0 6.0 0.00 0.00 0.00 62 1021.7
20260508115104 59 77 2.0 6.0 0.00 0.00 0.00 62 1021.7
20260508114604 59 77 2.0 6.0 0.00 0.00 0.00 62 1021.7
20260508114104 59 77 2.0 6.0 0.00 0.00 0.00 61 1021.7
20260508113604 59 77 2.0 6.0 0.00 0.00 0.00 60 1021.6
20260508113104 59 77 2.0 6.0 0.00 0.00 0.00 61 1021.6
20260508112604 59 77 2.0 6.0 0.00 0.00 0.00 59 1021.5
20260508112104 59 77 2.0 6.0 0.00 0.00 0.00 60 1021.5
20260508111104 60 77 2.0 6.0 0.00 0.00 0.00 61 1021.4
20260508110604 60 77 2.0 6.0 0.00 0.00 0.00 60 1021.4
20260508110104 61 77 2.0 6.0 0.00 0.00 0.00 58 1021.3
20260508105603 61 77 2.0 6.0 0.00 0.00 0.00 57 1021.3
20260508105103 60 77 2.0 6.0 0.00 0.00 0.00 57 1021.2
20260508104104 61 77 2.0 6.0 0.00 0.00 0.00 60 1021.2
20260508103604 61 77 2.0 6.0 0.00 0.00 0.00 58 1021.2
20260508103104 62 77 2.0 6.0 0.00 0.00 0.00 55 1021.1
20260508102603 61 77 2.0 6.0 0.00 0.00 0.00 56 1021.1
20260508101604 62 77 2.0 6.0 0.00 0.00 0.00 57 1021.0
20260508101104 62 77 2.0 6.0 0.00 0.00 0.00 56 1020.9
20260508100604 62 77 2.0 6.0 0.00 0.00 0.00 56 1020.9
20260508100104 62 77 2.0 6.0 0.00 0.00 0.00 56 1020.9
20260508095604 62 77 2.0 6.0 0.00 0.00 0.00 56 1020.9
20260508095104 62 77 2.0 6.0 0.00 0.00 0.00 56 1020.8
20260508094604 62 77 2.0 6.0 0.00 0.00 0.00 56 1020.9
20260508093603 62 77 2.0 6.0 0.00 0.00 0.00 55 1020.8
20260508093104 63 77 2.0 6.0 0.00 0.00 0.00 55 1020.8
20260508090603 63 77 2.0 6.0 0.00 0.00 0.00 53 1021.0
20260508090103 64 77 2.0 6.0 0.00 0.00 0.00 53 1021.1
20260508085603 64 77 2.0 6.0 0.00 0.00 0.00 53 1021.1
20260508085103 64 77 2.0 6.0 0.00 0.00 0.00 53 1021.1
20260508084604 64 77 2.0 6.0 0.00 0.00 0.00 52 1021.2
20260508084103 64 77 2.0 6.0 0.00 0.00 0.00 51 1021.1
20260508083603 64 77 2.0 6.0 0.00 0.00 0.00 51 1021.1
20260508083104 64 77 2.0 6.0 0.00 0.00 0.00 52 1021.2
20260508082603 65 77 2.0 6.0 0.00 0.00 0.00 53 1021.2
20260508082103 65 77 2.0 6.0 0.00 0.00 0.00 52 1021.3
20260508081604 66 77 2.0 6.0 0.00 0.00 0.00 51 1021.2
20260508081104 66 77 2.0 6.0 0.00 0.00 0.00 50 1021.3
20260508080603 66 77 2.0 6.0 0.00 0.00 0.00 50 1021.4
20260508075604 66 77 2.0 6.0 0.00 0.00 0.00 50 1021.4
20260508075103 66 77 2.0 6.0 0.00 0.00 0.00 50 1021.5
20260508074104 66 77 2.0 6.0 0.00 0.00 0.00 50 1021.6
20260508073604 66 77 2.0 6.0 0.00 0.00 0.00 49 1021.6
20260508073103 66 77 2.0 6.0 0.00 0.00 0.00 49 1021.6
20260508072603 66 77 2.0 6.0 0.00 0.00 0.00 49 1021.7
20260508071604 67 77 2.0 6.0 0.00 0.00 0.00 50 1021.7
20260508071103 67 77 2.0 6.0 0.00 0.00 0.00 49 1021.7
20260508070603 67 77 2.0 6.0 0.00 0.00 0.00 48 1021.7
20260508065604 68 77 2.0 6.0 0.00 0.00 0.00 48 1021.7
20260508064604 68 77 2.0 6.0 0.00 0.00 0.00 48 1021.8
20260508063603 68 77 2.0 6.0 0.00 0.00 0.00 47 1021.7
20260508062104 68 77 2.0 6.0 0.00 0.00 0.00 46 1021.8
20260508061603 69 77 2.0 6.0 0.00 0.00 0.00 45 1021.8
20260508061103 69 77 2.0 6.0 0.00 0.00 0.00 45 1021.8
20260508060603 69 77 2.0 6.0 0.00 0.00 0.00 46 1021.8
20260508055604 69 77 2.0 6.0 0.00 0.00 0.00 44 1021.8
20260508055104 69 77 2.0 6.0 0.00 0.00 0.00 44 1021.8
20260508054604 69 77 2.0 6.0 0.00 0.00 0.00 44 1021.8
20260508054103 69 77 2.0 6.0 0.00 0.00 0.00 43 1021.8
20260508053604 69 77 2.0 6.0 0.00 0.00 0.00 42 1021.8
20260508053104 70 77 2.0 6.0 0.00 0.00 0.00 43 1021.8
20260508052604 70 77 2.0 6.0 0.00 0.00 0.00 44 1021.8
20260508052104 71 77 2.0 6.0 0.00 0.00 0.00 42 1021.7
20260508051104 71 77 2.0 6.0 0.00 0.00 0.00 43 1021.7
20260508050604 71 77 2.0 6.0 0.00 0.00 0.00 43 1021.6
20260508050103 71 77 2.0 6.0 0.00 0.00 0.00 44 1021.7
20260508045604 71 77 2.0 6.0 0.00 0.00 0.00 43 1021.6
20260508045104 72 77 2.0 6.0 0.00 0.00 0.00 43 1021.5
20260508044604 72 77 2.0 6.0 0.00 0.00 0.00 42 1021.5
20260508044104 72 77 2.0 6.0 0.00 0.00 0.00 41 1021.4
20260508043603 73 77 2.0 6.0 0.00 0.00 0.00 40 1021.4
20260508043103 73 77 2.0 6.0 0.00 0.00 0.00 40 1021.3
20260508042604 73 77 2.0 6.0 0.00 0.00 0.00 40 1021.2
20260508042104 73 77 2.0 6.0 0.00 0.00 0.00 39 1021.2
20260508041603 72 77 2.0 6.0 0.00 0.00 0.00 40 1021.1
20260508041103 72 77 2.0 6.0 0.00 0.00 0.00 40 1021.1
20260508040603 72 77 2.0 6.0 0.00 0.00 0.00 41 1021.1
20260508035604 72 77 2.0 6.0 0.00 0.00 0.00 41 1021.0
20260508035103 72 77 2.0 6.0 0.00 0.00 0.00 41 1020.9
20260508034604 72 77 2.0 6.0 0.00 0.00 0.00 41 1020.9
20260508034104 72 77 2.0 6.0 0.00 0.00 0.00 40 1020.8
20260508033604 72 77 2.0 6.0 0.00 0.00 0.00 39 1020.8
20260508033103 73 77 2.0 6.0 0.00 0.00 0.00 39 1020.8
20260508032604 73 77 2.0 6.0 0.00 0.00 0.00 39 1020.7
20260508032103 73 77 2.0 6.0 0.00 0.00 0.00 39 1020.7
20260508031604 72 77 2.0 6.0 0.00 0.00 0.00 39 1020.7
20260508031104 73 77 2.0 6.0 0.00 0.00 0.00 39 1020.7
20260508030604 73 77 2.0 6.0 0.00 0.00 0.00 39 1020.6
20260508030103 73 77 2.0 6.0 0.00 0.00 0.00 38 1020.6
20260508025603 73 77 2.0 6.0 0.00 0.00 0.00 38 1020.5
20260508025103 74 77 2.0 6.0 0.00 0.00 0.00 38 1020.4
20260508024604 74 77 2.0 6.0 0.00 0.00 0.00 37 1020.4
20260508024104 74 77 2.0 6.0 0.00 0.00 0.00 37 1020.4
20260508023604 74 77 2.0 6.0 0.00 0.00 0.00 37 1020.4
20260508023103 75 77 2.0 6.0 0.00 0.00 0.00 36 1020.3
20260508022604 75 77 2.0 6.0 0.00 0.00 0.00 36 1020.3
20260508022104 76 77 2.0 6.0 0.00 0.00 0.00 36 1020.2
20260508021104 76 77 2.0 6.0 0.00 0.00 0.00 36 1020.0
20260508020604 77 77 2.0 6.0 0.00 0.00 0.00 35 1020.0
20260508020104 77 77 2.0 6.0 0.00 0.00 0.00 34 1019.9
20260508015604 78 77 2.0 6.0 0.00 0.00 0.00 34 1019.8
20260508015104 79 77 2.0 6.0 0.00 0.00 0.00 33 1019.7
20260508014604 79 77 2.0 6.0 0.00 0.00 0.00 32 1019.7
20260508013604 79 77 2.0 6.0 0.00 0.00 0.00 32 1019.6
20260508013104 79 77 2.0 6.0 0.00 0.00 0.00 32 1019.5
20260508012604 80 77 2.0 6.0 0.00 0.00 0.00 32 1019.5
20260508011604 81 77 2.0 6.0 0.00 0.00 0.00 31 1019.4
20260508011103 81 77 2.0 6.0 0.00 0.00 0.00 30 1019.4
20260508010604 82 77 2.0 6.0 0.00 0.00 0.00 30 1019.2
20260508010105 82 77 2.0 6.0 0.00 0.00 0.00 29 1019.2
20260508005603 82 77 2.0 6.0 0.00 0.00 0.00 29 1019.1
20260508005104 83 77 2.0 6.0 0.00 0.00 0.00 29 1019.1
20260508004604 83 77 2.0 6.0 0.00 0.00 0.00 28 1019.1
20260508004104 83 77 2.0 6.0 0.00 0.00 0.00 28 1019.0
20260508003603 84 77 2.0 6.0 0.00 0.00 0.00 28 1019.0
20260508003104 84 77 2.0 6.0 0.00 0.00 0.00 28 1018.9
20260508002104 85 77 2.0 6.0 0.00 0.00 0.00 28 1018.8
20260508001604 85 77 2.0 6.0 0.00 0.00 0.00 27 1018.8
20260508001104 85 77 2.0 6.0 0.00 0.00 0.00 27 1018.7
20260508000604 85 77 2.0 6.0 0.00 0.00 0.00 27 1018.6
20260508000103 86 77 2.0 6.0 0.00 0.00 0.00 27 1018.6
20260507235604 86 77 2.0 6.0 0.00 0.00 0.00 27 1018.6
20260507235103 86 77 2.0 6.0 0.00 0.00 0.00 27 1018.5
20260507234604 86 77 2.0 6.0 0.00 0.00 0.00 27 1018.5
20260507234104 86 77 2.0 6.0 0.00 0.00 0.00 27 1018.5
20260507233604 86 77 2.0 6.0 0.00 0.00 0.00 27 1018.5
20260507233104 86 77 2.0 6.0 0.00 0.00 0.00 27 1018.5
20260507232604 86 77 2.0 6.0 0.00 0.00 0.00 27 1018.5
20260507232104 87 77 2.0 6.0 0.00 0.00 0.00 27 1018.4
20260507231604 87 77 2.0 6.0 0.00 0.00 0.00 27 1018.4
20260507231104 87 77 2.0 6.0 0.00 0.00 0.00 27 1018.5
20260507230603 87 77 2.0 6.0 0.00 0.00 0.00 27 1018.4
20260507225604 87 77 2.0 6.0 0.00 0.00 0.00 27 1018.4
20260507224604 87 77 2.0 6.0 0.00 0.00 0.00 27 1018.5
20260507224104 87 77 2.0 6.0 0.00 0.00 0.00 27 1018.5
20260507223104 87 77 2.0 6.0 0.00 0.00 0.00 27 1018.6
20260507222603 87 77 2.0 6.0 0.00 0.00 0.00 27 1018.6
20260507222104 87 77 2.0 6.0 0.00 0.00 0.00 27 1018.6
20260507221103 87 77 2.0 6.0 0.00 0.00 0.00 27 1018.6
20260507220604 87 77 2.0 6.0 0.00 0.00 0.00 27 1018.7
20260507220104 87 77 2.0 6.0 0.00 0.00 0.00 27 1018.7
20260507215604 87 77 2.0 6.0 0.00 0.00 0.00 27 1018.8
20260507215104 87 77 2.0 6.0 0.00 0.00 0.00 28 1018.8
20260507214604 86 77 2.0 6.0 0.00 0.00 0.00 28 1018.8
20260507214103 86 77 2.0 6.0 0.00 0.00 0.00 29 1018.9
20260507213604 86 77 2.0 6.0 0.00 0.00 0.00 29 1018.9
20260507213104 86 77 2.0 6.0 0.00 0.00 0.00 29 1018.9
20260507212604 87 77 2.0 6.0 0.00 0.00 0.00 28 1019.0
20260507211604 86 77 2.0 6.0 0.00 0.00 0.00 29 1019.1
20260507211104 86 77 2.0 6.0 0.00 0.00 0.00 29 1019.2
20260507210603 86 77 2.0 6.0 0.00 0.00 0.00 29 1019.2
20260507210104 86 77 2.0 6.0 0.00 0.00 0.00 29 1019.4
20260507205604 86 77 2.0 6.0 0.00 0.00 0.00 29 1019.4
20260507205104 86 77 2.0 6.0 0.00 0.00 0.00 29 1019.5
20260507204604 86 77 2.0 6.0 0.00 0.00 0.00 29 1019.5
20260507204103 85 77 2.0 6.0 0.00 0.00 0.00 30 1019.5
20260507203603 85 77 2.0 6.0 0.00 0.00 0.00 29 1019.6
20260507203104 85 77 2.0 6.0 0.00 0.00 0.00 29 1019.7
20260507202604 85 77 2.0 6.0 0.00 0.00 0.00 30 1019.7
20260507202104 86 77 2.0 6.0 0.00 0.00 0.00 29 1019.8
20260507201603 85 77 2.0 6.0 0.00 0.00 0.00 30 1019.8
20260507200604 85 77 2.0 6.0 0.00 0.00 0.00 30 1019.9
20260507200104 85 77 2.0 6.0 0.00 0.00 0.00 30 1020.0
20260507195104 85 77 2.0 6.0 0.00 0.00 0.00 29 1020.1
20260507194603 85 77 2.0 6.0 0.00 0.00 0.00 30 1020.2
20260507194104 85 77 2.0 6.0 0.00 0.00 0.00 30 1020.3
20260507193604 85 77 2.0 6.0 0.00 0.00 0.00 31 1020.4
20260507193104 85 77 2.0 6.0 0.00 0.00 0.00 30 1020.4
20260507192604 84 77 2.0 6.0 0.00 0.00 0.00 31 1020.4
20260507191604 84 77 2.0 6.0 0.00 0.00 0.00 30 1020.5
20260507191104 84 77 2.0 6.0 0.00 0.00 0.00 31 1020.6
20260507190603 84 77 2.0 6.0 0.00 0.00 0.00 31 1020.7
20260507190104 84 77 2.0 6.0 0.00 0.00 0.00 31 1020.8
20260507185604 84 77 2.0 6.0 0.00 0.00 0.00 32 1020.7
20260507185103 83 77 2.0 6.0 0.00 0.00 0.00 32 1021.0
20260507184604 83 77 2.0 6.0 0.00 0.00 0.00 32 1021.0
20260507184104 82 77 2.0 6.0 0.00 0.00 0.00 32 1021.1
20260507183603 82 77 2.0 6.0 0.00 0.00 0.00 33 1021.1
20260507183103 82 77 2.0 6.0 0.00 0.00 0.00 33 1021.2
20260507182604 83 77 2.0 6.0 0.00 0.00 0.00 33 1021.2
20260507182104 82 77 2.0 6.0 0.00 0.00 0.00 33 1021.2
20260507181604 82 77 2.0 6.0 0.00 0.00 0.00 33 1021.2
20260507181104 82 77 2.0 6.0 0.00 0.00 0.00 34 1021.3
20260507180604 82 77 2.0 6.0 0.00 0.00 0.00 34 1021.4
20260507180104 82 77 2.0 6.0 0.00 0.00 0.00 33 1021.4
20260507175603 82 77 2.0 6.0 0.00 0.00 0.00 34 1021.5
20260507174604 81 77 2.0 6.0 0.00 0.00 0.00 34 1021.6
20260507173604 80 77 2.0 6.0 0.00 0.00 0.00 36 1021.6
20260507173104 80 77 2.0 6.0 0.00 0.00 0.00 35 1021.7
20260507172604 80 77 2.0 6.0 0.00 0.00 0.00 36 1021.7
20260507172104 80 77 2.0 6.0 0.00 0.00 0.00 36 1021.8
20260507171104 79 77 2.0 6.0 0.00 0.00 0.00 37 1021.8
20260507170604 79 77 2.0 6.0 0.00 0.00 0.00 37 1021.9
20260507170104 79 77 2.0 6.0 0.00 0.00 0.00 38 1021.9
20260507165104 79 77 2.0 6.0 0.00 0.00 0.00 39 1022.0
20260507164104 78 77 2.0 6.0 0.00 0.00 0.00 40 1022.1
20260507163105 78 77 2.0 6.0 0.00 0.00 0.00 41 1022.0
20260507162604 78 77 2.0 6.0 0.00 0.00 0.00 41 1022.0
20260507162104 78 77 2.0 6.0 0.00 0.00 0.00 42 1022.0
20260507161603 78 77 2.0 6.0 0.00 0.00 0.00 42 1022.0
20260507161104 78 77 2.0 6.0 0.00 0.00 0.00 42 1022.1
20260507160604 78 77 2.0 6.0 0.00 0.00 0.00 42 1022.1
20260507160104 79 77 2.0 6.0 0.00 0.00 0.00 43 1022.2
20260507155604 80 77 2.0 6.0 0.00 0.00 0.00 39 1022.3
20260507155103 79 77 2.0 6.0 0.00 0.00 0.00 42 1022.3
20260507154104 77 77 2.0 6.0 0.00 0.00 0.00 43 1022.4